FW2442 Weather Reports


time (UTC)temp
C
wind
direction
speed
KPH
gust
KPH
rain 1hr
cm
rain 24hr
cm
rain mn
cm
humidity
%
barometer
mb
20260504171521 21 95 0.0 3.2 0.00 0.00 0.00 44 1014.3
20260504170523 22 88 0.0 3.2 0.00 0.00 0.00 43 1014.1
20260504150522 25 67 1.6 4.8 0.00 0.00 0.00 36 1013.9
20260504140522 25 59 4.8 9.7 0.00 0.00 0.00 36 1014.2
20260504130521 25 51 4.8 9.7 0.00 0.00 0.00 34 1014.5
20260504110522 24 58 1.6 3.2 0.00 0.00 0.00 40 1015.6
20260504100530 22 46 1.6 3.2 0.00 0.00 0.00 43 1016.2
20260504081525 18 0.0 0.0 0.00 0.00 0.00 58 1016.6
20260504080545 17 336 0.0 1.6 0.00 0.00 0.00 60 1016.6
20260504050525 11 0.0 0.0 0.00 0.00 0.00 66 1017.1
20260504045526 10 0.0 0.0 0.00 0.00 0.00 67 1017.0
20260504044525 10 0.0 0.0 0.00 0.00 0.00 66 1017.1
20260504043524 10 0.0 0.0 0.00 0.00 0.00 66 1017.1
20260504042524 10 0.0 0.0 0.00 0.00 0.00 66 1017.0
20260504041545 10 0.0 0.0 0.00 0.00 0.00 66 1016.9
20260504040525 10 0.0 0.0 0.00 0.00 0.00 64 1016.8
20260504035525 10 0.0 0.0 0.00 0.00 0.00 63 1016.8
20260504034523 10 0.0 0.0 0.00 0.00 0.00 62 1016.9
20260504033527 10 0.0 0.0 0.00 0.00 0.00 61 1016.9
20260504032526 9 0.0 0.0 0.00 0.00 0.00 62 1017.0
20260504031525 9 0.0 0.0 0.00 0.00 0.00 61 1017.0
20260504030530 9 0.0 0.0 0.00 0.00 0.00 60 1017.1
20260504025527 10 0.0 0.0 0.00 0.00 0.00 60 1017.1
20260504024601 10 0.0 0.0 0.00 0.00 0.00 60 1017.0
20260504023527 9 0.0 0.0 0.00 0.00 0.00 61 1017.0
20260504022546 8 0.0 0.0 0.00 0.00 0.00 63 1017.1
20260504021527 8 0.0 0.0 0.00 0.00 0.00 64 1017.1
20260504020526 8 0.0 0.0 0.00 0.00 0.00 63 1017.1
20260504015525 8 0.0 0.0 0.00 0.00 0.00 62 1016.9
20260504014527 9 0.0 0.0 0.00 0.00 0.00 62 1017.0
20260504013523 8 0.0 0.0 0.00 0.00 0.00 62 1017.1
20260504012524 8 0.0 0.0 0.00 0.00 0.00 64 1017.1
20260504011547 7 0.0 0.0 0.00 0.00 0.00 67 1017.1
20260504010525 7 0.0 0.0 0.00 0.00 0.00 66 1017.1
20260504005524 7 0.0 0.0 0.00 0.00 0.00 65 1017.2
20260504004524 8 0.0 0.0 0.00 0.00 0.00 62 1017.2
20260504003526 9 0.0 0.0 0.00 0.00 0.00 60 1017.2
20260504002543 9 0.0 0.0 0.00 0.00 0.00 59 1017.2
20260504001525 10 0.0 0.0 0.00 0.00 0.00 56 1017.2
20260504000524 10 0.0 0.0 0.00 0.00 0.00 56 1017.2
20260503235524 10 0.0 0.0 0.00 0.00 0.00 54 1017.2
20260503234524 11 0.0 0.0 0.00 0.00 0.00 53 1017.4
20260503233524 11 0.0 0.0 0.00 0.00 0.00 53 1017.3
20260503232526 11 0.0 0.0 0.00 0.00 0.00 53 1017.3
20260503231525 10 0.0 0.0 0.00 0.00 0.00 53 1017.3
20260503230524 11 0.0 0.0 0.00 0.00 0.00 53 1017.4
20260503225524 11 199 0.0 4.8 0.00 0.00 0.00 52 1017.6
20260503224524 11 0.0 0.0 0.00 0.00 0.00 52 1017.7
20260503223527 11 0.0 0.0 0.00 0.00 0.00 52 1017.8
20260503222526 11 0.0 0.0 0.00 0.00 0.00 53 1017.8
20260503221606 11 200 0.0 3.2 0.00 0.00 0.00 52 1017.8
20260503220522 11 0.0 0.0 0.00 0.00 0.00 52 1017.9
20260503215544 11 0.0 0.0 0.00 0.00 0.00 53 1017.9
20260503214522 11 0.0 0.0 0.00 0.00 0.00 51 1017.9
20260503213522 12 0.0 0.0 0.00 0.00 0.00 50 1018.1
20260503212524 11 0.0 0.0 0.00 0.00 0.00 51 1018.1
20260503211528 11 0.0 0.0 0.00 0.00 0.00 52 1018.1
20260503210604 11 0.0 0.0 0.00 0.00 0.00 54 1018.1
20260503205524 11 0.0 0.0 0.00 0.00 0.00 55 1018.3
20260503204544 11 0.0 0.0 0.00 0.00 0.00 55 1018.3
20260503203523 11 0.0 0.0 0.00 0.00 0.00 52 1018.4
20260503202544 11 0.0 0.0 0.00 0.00 0.00 52 1018.4
20260503201522 11 0.0 0.0 0.00 0.00 0.00 52 1018.4
20260503200525 11 0.0 0.0 0.00 0.00 0.00 52 1018.5
20260503195524 11 0.0 0.0 0.00 0.00 0.00 53 1018.5
20260503194542 11 0.0 0.0 0.00 0.00 0.00 52 1018.6
20260503193524 11 0.0 0.0 0.00 0.00 0.00 52 1018.7
20260503192524 12 0.0 0.0 0.00 0.00 0.00 52 1018.8
20260503191544 12 0.0 0.0 0.00 0.00 0.00 50 1018.7
20260503190523 12 0.0 0.0 0.00 0.00 0.00 50 1018.7
20260503185523 12 0.0 0.0 0.00 0.00 0.00 51 1018.7
20260503184524 12 0.0 0.0 0.00 0.00 0.00 51 1018.8
20260503183523 12 0.0 0.0 0.00 0.00 0.00 50 1018.7
20260503182603 12 291 0.0 1.6 0.00 0.00 0.00 50 1018.6
20260503181544 12 0.0 0.0 0.00 0.00 0.00 50 1018.6
20260503180544 12 0.0 0.0 0.00 0.00 0.00 50 1018.6
20260503175543 13 0.0 0.0 0.00 0.00 0.00 50 1018.6
20260503174523 13 0.0 0.0 0.00 0.00 0.00 49 1018.6
20260503173544 13 0.0 0.0 0.00 0.00 0.00 48 1018.5
20260503172524 14 0.0 0.0 0.00 0.00 0.00 47 1018.6